Epoch 2019 Nov. 13.0 TT = JDT 2458800.5 T 2019 Nov. 10.95987 TT Rudenko q 3.1246473 (2000.0) P Q z -0.0000526 Peri. 24.39558 +0.78558761 -0.45744262 +/-0.0000003 Node 25.25925 +0.27011836 -0.35227637 e 1.0001645 Incl. 77.53195 +0.55667602 +0.81648491 From 3752 observations 2018 July 7-2021 Jan. 27, mean residual 0".6.
m1 = 4.7 + 5 log d + 10.0 log r(t + 70)